When you browse on this site, cookies collect data to enhance your experience and personalize the content and advertising you see.
Visit our Privacy Policy to learn more. By continuing to use the site, you agree to this use of cookies and data.
  • Em Portugal
  • Lista de países
  • Para 7 dias
  • Temperatura da água
  • Mapa do tempo
  • Widgets de tempo
  • user-avatar
    Iniciar Sessão

    Previsão horária em Linz

    Hoje, 22 Setembro, Domingo

    Tempo Temperatura Precipitação Vento Pressão Humidade
    00:00 +9°C° 0 mm 2 m/s 735 mmHg 75%
    01:00 +9°C° 0 mm 2 m/s 734 mmHg 79%
    02:00 +9°C° 0 mm 2 m/s 734 mmHg 80%
    03:00 +8°C° 0 mm 2 m/s 734 mmHg 81%
    04:00 +8°C° 0 mm 2 m/s 733 mmHg 82%
    05:00 +9°C° 0 mm 1 m/s 733 mmHg 81%
    06:00 +10°C° 0 mm 1 m/s 733 mmHg 80%
    07:00 +10°C° 0 mm 1 m/s 733 mmHg 78%
    08:00 +12°C° 0 mm 2 m/s 733 mmHg 72%
    09:00 +14°C° 0 mm 2 m/s 733 mmHg 65%
    10:00 +16°C° 0 mm 2 m/s 732 mmHg 59%
    11:00 +18°C° 0 mm 2 m/s 732 mmHg 57%
    12:00 +19°C° 0 mm 2 m/s 731 mmHg 55%
    13:00 +20°C° 0 mm 2 m/s 731 mmHg 53%
    14:00 +21°C° 0 mm 1 m/s 731 mmHg 57%
    15:00 +21°C° 0 mm 1 m/s 730 mmHg 60%
    16:00 +21°C° 0 mm 1 m/s 730 mmHg 63%
    17:00 +19°C° 0 mm 1 m/s 730 mmHg 69%
    18:00 +16°C° 0 mm 1 m/s 730 mmHg 75%
    19:00 +13°C° 0 mm 0 m/s 730 mmHg 80%
    20:00 +13°C° 0 mm 0 m/s 730 mmHg 81%
    21:00 +13°C° 0 mm 0 m/s 730 mmHg 81%
    22:00 +12°C° 0 mm 0 m/s 730 mmHg 81%
    23:00 +12°C° 0 mm 0 m/s 730 mmHg 82%

    Amanhã, 23 Setembro, Segunda-feira

    Tempo Temperatura Precipitação Vento Pressão Humidade
    00:00 +12°C° 0 mm 0 m/s 730 mmHg 82%
    01:00 +11°C° 0 mm 0 m/s 730 mmHg 82%
    02:00 +11°C° 0 mm 0 m/s 730 mmHg 82%
    03:00 +11°C° 0 mm 0 m/s 730 mmHg 82%
    04:00 +11°C° 0 mm 0 m/s 730 mmHg 82%
    05:00 +12°C° 0 mm 0 m/s 730 mmHg 82%
    06:00 +13°C° 0 mm 1 m/s 730 mmHg 82%
    07:00 +13°C° 0 mm 1 m/s 730 mmHg 82%
    08:00 +15°C° 0 mm 2 m/s 731 mmHg 81%
    09:00 +16°C° 0 mm 3 m/s 731 mmHg 81%
    10:00 +17°C° 0 mm 4 m/s 731 mmHg 80%
    11:00 +15°C° 0.2 mm 4 m/s 731 mmHg 83%
    12:00 +15°C° 0.2 mm 5 m/s 731 mmHg 87%
    13:00 +14°C° 0.2 mm 5 m/s 731 mmHg 90%
    14:00 +13°C° 0.5 mm 5 m/s 732 mmHg 91%
    15:00 +13°C° 0.5 mm 5 m/s 732 mmHg 93%
    16:00 +13°C° 0.5 mm 5 m/s 732 mmHg 94%
    17:00 +13°C° 0.2 mm 4 m/s 733 mmHg 94%
    18:00 +12°C° 0.2 mm 4 m/s 733 mmHg 94%
    19:00 +12°C° 0.2 mm 3 m/s 733 mmHg 94%
    20:00 +12°C° 0.2 mm 3 m/s 734 mmHg 94%
    21:00 +12°C° 0.2 mm 3 m/s 734 mmHg 94%
    22:00 +12°C° 0.2 mm 3 m/s 734 mmHg 94%
    23:00 +12°C° 0 mm 3 m/s 734 mmHg 94%

    Depois de amanhã, 24 Setembro, Terça-feira

    Tempo Temperatura Precipitação Vento Pressão Humidade
    00:00 +13°C° 0 mm 2 m/s 734 mmHg 94%
    01:00 +13°C° 0 mm 2 m/s 734 mmHg 94%
    02:00 +13°C° 0 mm 2 m/s 733 mmHg 94%
    03:00 +13°C° 0 mm 1 m/s 733 mmHg 94%
    04:00 +13°C° 0 mm 1 m/s 733 mmHg 94%
    05:00 +13°C° 0 mm 1 m/s 733 mmHg 93%
    06:00 +13°C° 0 mm 1 m/s 733 mmHg 93%
    07:00 +12°C° 0 mm 0 m/s 733 mmHg 93%
    08:00 +13°C° 0 mm 0 m/s 733 mmHg 86%
    09:00 +16°C° 0 mm 1 m/s 732 mmHg 80%
    10:00 +19°C° 0 mm 1 m/s 732 mmHg 73%
    11:00 +20°C° 0 mm 1 m/s 732 mmHg 68%
    12:00 +21°C° 0 mm 1 m/s 731 mmHg 63%
    13:00 +22°C° 0 mm 1 m/s 731 mmHg 58%
    14:00 +21°C° 0 mm 1 m/s 730 mmHg 59%
    15:00 +21°C° 0 mm 1 m/s 730 mmHg 60%
    16:00 +21°C° 0 mm 1 m/s 729 mmHg 61%
    17:00 +19°C° 0 mm 1 m/s 729 mmHg 68%
    18:00 +16°C° 0 mm 1 m/s 729 mmHg 74%
    19:00 +13°C° 0 mm 0 m/s 729 mmHg 80%
    20:00 +13°C° 0 mm 0 m/s 729 mmHg 81%
    21:00 +14°C° 0 mm 1 m/s 729 mmHg 82%
    22:00 +14°C° 0 mm 1 m/s 729 mmHg 83%
    23:00 +14°C° 0 mm 1 m/s 729 mmHg 84%

    25 Setembro, Quarta-feira

    Tempo Temperatura Precipitação Vento Pressão Humidade
    00:00 +14°C° 0 mm 1 m/s 729 mmHg 84%
    01:00 +14°C° 0 mm 1 m/s 729 mmHg 85%
    02:00 +14°C° 0 mm 1 m/s 729 mmHg 86%
    03:00 +14°C° 0 mm 1 m/s 729 mmHg 86%
    04:00 +13°C° 0 mm 0 m/s 729 mmHg 86%
    05:00 +14°C° 0 mm 1 m/s 729 mmHg 87%
    06:00 +14°C° 0 mm 1 m/s 729 mmHg 87%
    07:00 +14°C° 0 mm 1 m/s 728 mmHg 88%
    08:00 +15°C° 0.1 mm 2 m/s 729 mmHg 84%
    09:00 +16°C° 0.1 mm 3 m/s 729 mmHg 81%
    10:00 +17°C° 0.1 mm 4 m/s 729 mmHg 77%
    11:00 +16°C° 0.4 mm 5 m/s 729 mmHg 78%
    12:00 +15°C° 0.4 mm 5 m/s 729 mmHg 80%
    13:00 +15°C° 0.4 mm 5 m/s 729 mmHg 81%
    14:00 +15°C° 0.4 mm 4 m/s 729 mmHg 83%
    15:00 +14°C° 0.4 mm 4 m/s 729 mmHg 84%
    16:00 +13°C° 0.4 mm 4 m/s 729 mmHg 86%
    17:00 +13°C° 0.2 mm 3 m/s 730 mmHg 88%
    18:00 +12°C° 0.2 mm 3 m/s 730 mmHg 89%
    19:00 +13°C° 0.2 mm 2 m/s 731 mmHg 90%
    20:00 +12°C° 0 mm 2 m/s 731 mmHg 91%
    21:00 +12°C° 0 mm 2 m/s 731 mmHg 91%
    22:00 +11°C° 0 mm 3 m/s 731 mmHg 91%
    23:00 +12°C° 0 mm 2 m/s 732 mmHg 91%

    26 Setembro, Quinta-feira

    Tempo Temperatura Precipitação Vento Pressão Humidade
    00:00 +12°C° 0 mm 2 m/s 732 mmHg 92%
    01:00 +12°C° 0 mm 2 m/s 732 mmHg 92%
    02:00 +12°C° 0.1 mm 2 m/s 732 mmHg 92%
    03:00 +12°C° 0.1 mm 2 m/s 732 mmHg 92%
    04:00 +11°C° 0.1 mm 3 m/s 732 mmHg 91%
    05:00 +12°C° 0 mm 2 m/s 732 mmHg 92%
    06:00 +12°C° 0 mm 2 m/s 733 mmHg 92%
    07:00 +12°C° 0 mm 2 m/s 733 mmHg 92%
    08:00 +14°C° 0 mm 2 m/s 733 mmHg 85%
    09:00 +14°C° 0 mm 3 m/s 733 mmHg 78%
    10:00 +17°C° 0 mm 3 m/s 733 mmHg 70%
    11:00 +17°C° 0 mm 3 m/s 733 mmHg 69%
    12:00 +17°C° 0 mm 3 m/s 733 mmHg 67%
    13:00 +18°C° 0 mm 3 m/s 733 mmHg 65%
    14:00 +18°C° 0 mm 2 m/s 733 mmHg 66%
    15:00 +18°C° 0 mm 2 m/s 733 mmHg 67%
    16:00 +18°C° 0 mm 2 m/s 732 mmHg 67%
    17:00 +18°C° 0 mm 1 m/s 733 mmHg 71%
    18:00 +16°C° 0 mm 1 m/s 733 mmHg 75%
    19:00 +15°C° 0 mm 1 m/s 733 mmHg 78%
    20:00 +15°C° 0 mm 1 m/s 733 mmHg 79%
    21:00 +15°C° 0 mm 1 m/s 733 mmHg 79%
    22:00 +13°C° 0 mm 0 m/s 733 mmHg 80%
    23:00 +13°C° 0 mm 0 m/s 733 mmHg 81%

    27 Setembro, Sexta-feira

    Tempo Temperatura Precipitação Vento Pressão Humidade
    00:00 +12°C° 0 mm 0 m/s 733 mmHg 83%
    01:00 +12°C° 0 mm 0 m/s 733 mmHg 84%
    02:00 +12°C° 0 mm 0 m/s 733 mmHg 84%
    03:00 +11°C° 0 mm 0 m/s 733 mmHg 85%
    04:00 +11°C° 0 mm 0 m/s 733 mmHg 85%
    05:00 +12°C° 0 mm 0 m/s 733 mmHg 83%
    06:00 +12°C° 0 mm 0 m/s 733 mmHg 82%
    07:00 +13°C° 0 mm 0 m/s 733 mmHg 80%
    08:00 +13°C° 0 mm 0 m/s 733 mmHg 79%
    09:00 +14°C° 0 mm 0 m/s 733 mmHg 77%
    10:00 +15°C° 0 mm 0 m/s 733 mmHg 75%
    11:00 +15°C° 0 mm 0 m/s 733 mmHg 73%
    12:00 +18°C° 0 mm 1 m/s 732 mmHg 71%
    13:00 +19°C° 0 mm 1 m/s 732 mmHg 68%
    14:00 +19°C° 0 mm 1 m/s 732 mmHg 68%
    15:00 +19°C° 0 mm 1 m/s 732 mmHg 68%
    16:00 +20°C° 0 mm 1 m/s 731 mmHg 67%
    17:00 +19°C° 0 mm 1 m/s 732 mmHg 71%
    18:00 +18°C° 0 mm 1 m/s 732 mmHg 74%
    19:00 +15°C° 0 mm 0 m/s 732 mmHg 78%
    20:00 +16°C° 0 mm 1 m/s 732 mmHg 77%
    21:00 +16°C° 0 mm 2 m/s 733 mmHg 77%
    22:00 +16°C° 0 mm 3 m/s 733 mmHg 76%
    23:00 +15°C° 0.9 mm 2 m/s 733 mmHg 83%
    Mostrar mais